OBJECT G, 47697

Orbit data source: Space-Track

You're viewing an Uncataloged Satellite

Recently launched and/or uncataloged satellites may have evolving metadata. Metadata may include but not limited to: Owner, Maufacturer, Bus, Motor, and Mission.

OBJECT G, 47697 is a satellite owned by CNSA (CN) in LEO that was launched on Wed, 24 Feb 2021 UTC launched from the Jiuquan Satellite Launch Center, China (JSC). Unknown objects in Earth's orbit typically refer to objects detected orbiting the Earth but have not yet been identified or cataloged. These objects could be anything from previously untracked satellites, spent rocket stages, debris from satellite collisions, or even natural meteoroids temporarily captured by Earth's gravity.

Loading next visibility...
Identifier
47697, 2021-014G
Orbit
LEO
Country
Flag of CNCN / PRC
Related business
Manufacturer
Unknown
Mission
Spacecraft
Bus & Motor
Unknown
Mass
Unknown
Launch date (UTC)
2021-02-24 (5 years ago)
Launch vehicle
Unknown
Launch site
Jiuquan Satellite Launch Center, China (JSC)
Object type
Unknown
Shape & HBR
Unknown shape, 0.1 m
Radar Cross Section
Medium (>0.1 m² and <1 m²)

Expand to show TLE details & history
Last TLE update: 1 day ago

TLE from 1 day ago
0 OBJECT G
1 47697U 21014G   26172.40665552  .00000044  00000-0  22162-3 0  9996
2 47697  63.3946 219.7806 0160785 359.5510   0.5345 13.41611389260567
Epoch: 2026-06-21T09:45Z
TLE epoch observation values (Epoch: 2026-06-21T09:45:35.036Z)
Latitude
-0.00003°
Longitude
163.77722°
Altitude
984.749 km
Speed
7.419 km/s
True Right ascension
14h 39m 07s
True Declination
0° 00' 00"
Sunlit
Object was in full shadow at epoch
Visualization orbit readout
Latitude
Unknown
Longitude
Unknown
Altitude
Unknown
Speed
Unknown
Apparent Right ascension
Unknown
Apparent Declination
Unknown
Sunlit
N/A
Visualization observer readout
Local Sidereal Time
21:23:38
Azimuth
Unknown
Elevation
Unknown
Doppler factor
Unknown
Orbital elements
Apogee altitude
1,222.386 km
Perigee altitude
981.843 km
Semi-major axis
7,480.252 km
Eccentricity
0.01608
Inclination
63.3946°
RAAN
219.7806°
Arg. of periapsis
359.551°
True anomaly
0.55204°
Mean anomaly
0.5345°
Eccentric anomaly
0.54323°
Mean motion
3.35482 °/min
Orbital period
107.31 mins
BSTAR
0.00022162
Loading maneuver chart data...
Computing Atmospheric mass density...
Loading historical data...
Loading historical data...
Loading historical data...
Loading historical data...
Loading historical data...
Loading historical data...
Loading historical data...

Documentation

Showing up to 5 results
|